Year,Month,Day,Hour,Minute,Value (Times are PST for temperature in C)
2017,05,23,00,00,15.70
2017,05,23,00,01,15.70
2017,05,23,00,02,15.60
2017,05,23,00,03,15.60
2017,05,23,00,04,15.60
2017,05,23,00,05,15.60
2017,05,23,00,06,15.60
2017,05,23,00,07,15.50
2017,05,23,00,08,15.50
2017,05,23,00,09,15.50
2017,05,23,00,10,15.50
2017,05,23,00,11,15.40
2017,05,23,00,12,15.40
2017,05,23,00,13,15.40
2017,05,23,00,14,15.40
2017,05,23,00,15,15.40
2017,05,23,00,16,15.40
2017,05,23,00,17,15.30
2017,05,23,00,18,15.30
2017,05,23,00,19,15.30
2017,05,23,00,20,15.30
2017,05,23,00,21,15.30
2017,05,23,00,22,15.30
2017,05,23,00,23,15.20
2017,05,23,00,24,15.20
2017,05,23,00,25,15.20
2017,05,23,00,26,15.20
2017,05,23,00,27,15.20
2017,05,23,00,28,15.20
2017,05,23,00,29,15.20
2017,05,23,00,30,15.20
2017,05,23,00,31,15.20
2017,05,23,00,32,15.20
2017,05,23,00,33,15.30
2017,05,23,00,34,15.30
2017,05,23,00,35,15.30
2017,05,23,00,36,15.30
2017,05,23,00,37,15.30
2017,05,23,00,38,15.30
2017,05,23,00,39,15.30
2017,05,23,00,40,15.30
2017,05,23,00,41,15.30
2017,05,23,00,42,15.30
2017,05,23,00,43,15.30
2017,05,23,00,44,15.30
2017,05,23,00,45,15.20
2017,05,23,00,46,15.20
2017,05,23,00,47,15.20
2017,05,23,00,48,15.20
2017,05,23,00,49,15.10
2017,05,23,00,50,15.10
2017,05,23,00,51,15.10
2017,05,23,00,52,15.10
2017,05,23,00,53,15.00
2017,05,23,00,54,15.00
2017,05,23,00,55,14.90
2017,05,23,00,56,14.90
2017,05,23,00,57,14.90
2017,05,23,00,58,14.90
2017,05,23,00,59,14.80
2017,05,23,01,00,14.80
2017,05,23,01,01,14.80
2017,05,23,01,02,14.80
2017,05,23,01,03,14.80
2017,05,23,01,04,14.80
2017,05,23,01,05,14.70
2017,05,23,01,06,14.70
2017,05,23,01,07,14.70
2017,05,23,01,08,14.70
2017,05,23,01,09,14.70
2017,05,23,01,10,14.70
2017,05,23,01,11,14.70
2017,05,23,01,12,14.60
2017,05,23,01,13,14.60
2017,05,23,01,14,14.60
2017,05,23,01,15,14.60
2017,05,23,01,16,14.60
2017,05,23,01,17,14.60
2017,05,23,01,18,14.50
2017,05,23,01,19,14.50
2017,05,23,01,20,14.50
2017,05,23,01,21,14.50
2017,05,23,01,22,14.50
2017,05,23,01,23,14.50
2017,05,23,01,24,14.40
2017,05,23,01,25,14.40
2017,05,23,01,26,14.40
2017,05,23,01,27,14.40
2017,05,23,01,28,14.50
2017,05,23,01,29,14.50
2017,05,23,01,30,14.50
2017,05,23,01,31,14.50
2017,05,23,01,32,14.50
2017,05,23,01,33,14.60
2017,05,23,01,34,14.60
2017,05,23,01,35,14.60
2017,05,23,01,36,14.60
2017,05,23,01,37,14.60
2017,05,23,01,38,14.60
2017,05,23,01,39,14.60
2017,05,23,01,40,14.60
2017,05,23,01,41,14.60
2017,05,23,01,42,14.60
2017,05,23,01,43,14.50
2017,05,23,01,44,14.50
2017,05,23,01,45,14.40
2017,05,23,01,46,14.40
2017,05,23,01,47,14.40
2017,05,23,01,48,14.40
2017,05,23,01,49,14.40
2017,05,23,01,50,14.40
2017,05,23,01,51,14.40
2017,05,23,01,52,14.40
2017,05,23,01,53,14.40
2017,05,23,01,54,14.40
2017,05,23,01,55,14.40
2017,05,23,01,56,14.40
2017,05,23,01,57,14.30
2017,05,23,01,58,14.30
2017,05,23,01,59,14.30
2017,05,23,02,00,14.30
2017,05,23,02,01,14.20
2017,05,23,02,02,14.20
2017,05,23,02,03,14.20
2017,05,23,02,04,14.20
2017,05,23,02,05,14.10
2017,05,23,02,06,14.10
2017,05,23,02,07,14.10
2017,05,23,02,08,14.10
2017,05,23,02,09,14.10
2017,05,23,02,10,14.10
2017,05,23,02,11,14.10
2017,05,23,02,12,14.00
2017,05,23,02,13,14.00
2017,05,23,02,14,14.00
2017,05,23,02,15,14.00
2017,05,23,02,16,13.90
2017,05,23,02,17,13.90
2017,05,23,02,18,13.90
2017,05,23,02,19,13.90
2017,05,23,02,20,13.90
2017,05,23,02,21,13.90
2017,05,23,02,22,13.80
2017,05,23,02,23,13.80
2017,05,23,02,24,13.80
2017,05,23,02,25,13.80
2017,05,23,02,26,13.80
2017,05,23,02,27,13.80
2017,05,23,02,28,13.80
2017,05,23,02,29,13.80
2017,05,23,02,30,13.80
2017,05,23,02,31,13.80
2017,05,23,02,32,13.80
2017,05,23,02,33,13.80
2017,05,23,02,34,13.80
2017,05,23,02,35,13.70
2017,05,23,02,36,13.70
2017,05,23,02,37,13.70
2017,05,23,02,38,13.60
2017,05,23,02,39,13.60
2017,05,23,02,40,13.60
2017,05,23,02,41,13.60
2017,05,23,02,42,13.60
2017,05,23,02,43,13.60
2017,05,23,02,44,13.60
2017,05,23,02,45,13.60
2017,05,23,02,46,13.60
2017,05,23,02,47,13.60
2017,05,23,02,48,13.70
2017,05,23,02,49,13.70
2017,05,23,02,50,13.70
2017,05,23,02,51,13.70
2017,05,23,02,52,13.70
2017,05,23,02,53,13.60
2017,05,23,02,54,13.60
2017,05,23,02,55,13.60
2017,05,23,02,56,13.60
2017,05,23,02,57,13.60
2017,05,23,02,58,13.50
2017,05,23,02,59,13.50
2017,05,23,03,00,13.50
2017,05,23,03,01,13.50
2017,05,23,03,02,13.50
2017,05,23,03,03,13.50
2017,05,23,03,04,13.60
2017,05,23,03,05,13.60
2017,05,23,03,06,13.60
2017,05,23,03,07,13.60
2017,05,23,03,08,13.60
2017,05,23,03,09,13.60
2017,05,23,03,10,13.60
2017,05,23,03,11,13.60
2017,05,23,03,12,13.60
2017,05,23,03,13,13.60
2017,05,23,03,14,13.60
2017,05,23,03,15,13.60
2017,05,23,03,16,13.60
2017,05,23,03,17,13.60
2017,05,23,03,18,13.60
2017,05,23,03,19,13.50
2017,05,23,03,20,13.50
2017,05,23,03,21,13.50
2017,05,23,03,22,13.50
2017,05,23,03,23,13.50
2017,05,23,03,24,13.40
2017,05,23,03,25,13.40
2017,05,23,03,26,13.40
2017,05,23,03,27,13.40
2017,05,23,03,28,13.40
2017,05,23,03,29,13.30
2017,05,23,03,30,13.30
2017,05,23,03,31,13.30
2017,05,23,03,32,13.30
2017,05,23,03,33,13.30
2017,05,23,03,34,13.30
2017,05,23,03,35,13.20
2017,05,23,03,36,13.20
2017,05,23,03,37,13.20
2017,05,23,03,38,13.20
2017,05,23,03,39,13.20
2017,05,23,03,40,13.20
2017,05,23,03,41,13.20
2017,05,23,03,42,13.20
2017,05,23,03,43,13.20
2017,05,23,03,44,13.10
2017,05,23,03,45,13.10
2017,05,23,03,46,13.10
2017,05,23,03,47,13.10
2017,05,23,03,48,13.10
2017,05,23,03,49,13.10
2017,05,23,03,50,13.00
2017,05,23,03,51,13.00
2017,05,23,03,52,13.00
2017,05,23,03,53,13.00
2017,05,23,03,54,12.90
2017,05,23,03,55,12.90
2017,05,23,03,56,12.90
2017,05,23,03,57,12.90
2017,05,23,03,58,12.90
2017,05,23,03,59,12.90
2017,05,23,04,00,12.90
2017,05,23,04,01,12.80
2017,05,23,04,02,12.80
2017,05,23,04,03,12.80
2017,05,23,04,04,12.80
2017,05,23,04,05,12.80
2017,05,23,04,06,12.80
2017,05,23,04,07,12.80
2017,05,23,04,08,12.80
2017,05,23,04,09,12.80
2017,05,23,04,10,12.80
2017,05,23,04,11,12.70
2017,05,23,04,12,12.70
2017,05,23,04,13,12.70
2017,05,23,04,14,12.70
2017,05,23,04,15,12.70
2017,05,23,04,16,12.70
2017,05,23,04,17,12.70
2017,05,23,04,18,12.60
2017,05,23,04,19,12.60
2017,05,23,04,20,12.60
2017,05,23,04,21,12.60
2017,05,23,04,22,12.60
2017,05,23,04,23,12.60
2017,05,23,04,24,12.60
2017,05,23,04,25,12.60
2017,05,23,04,26,12.60
2017,05,23,04,27,12.60
2017,05,23,04,28,12.60
2017,05,23,04,29,12.60
2017,05,23,04,30,12.60
2017,05,23,04,31,12.60
2017,05,23,04,32,12.60
2017,05,23,04,33,12.60
2017,05,23,04,34,12.60
2017,05,23,04,35,12.60
2017,05,23,04,36,12.60
2017,05,23,04,37,12.50
2017,05,23,04,38,12.50
2017,05,23,04,39,12.40
2017,05,23,04,40,12.40
2017,05,23,04,41,12.40
2017,05,23,04,42,12.30
2017,05,23,04,43,12.30
2017,05,23,04,44,12.30
2017,05,23,04,45,12.30
2017,05,23,04,46,12.30
2017,05,23,04,47,12.20
2017,05,23,04,48,12.20
2017,05,23,04,49,12.20
2017,05,23,04,50,12.20
2017,05,23,04,51,12.20
2017,05,23,04,52,12.10
2017,05,23,04,53,12.10
2017,05,23,04,54,12.10
2017,05,23,04,55,12.10
2017,05,23,04,56,12.10
2017,05,23,04,57,12.10
2017,05,23,04,58,12.10
2017,05,23,04,59,12.00
2017,05,23,05,00,12.00
2017,05,23,05,01,11.90
2017,05,23,05,02,11.90
2017,05,23,05,03,11.90
2017,05,23,05,04,11.90
2017,05,23,05,05,11.90
2017,05,23,05,06,11.90
2017,05,23,05,07,11.90
2017,05,23,05,08,11.90
2017,05,23,05,09,11.90
2017,05,23,05,10,11.90
2017,05,23,05,11,11.90
2017,05,23,05,12,11.90
2017,05,23,05,13,11.90
2017,05,23,05,14,11.80
2017,05,23,05,15,11.80
2017,05,23,05,16,11.80
2017,05,23,05,17,11.80
2017,05,23,05,18,11.80
2017,05,23,05,19,11.80
2017,05,23,05,20,11.80
2017,05,23,05,21,11.70
2017,05,23,05,22,11.70
2017,05,23,05,23,11.70
2017,05,23,05,24,11.70
2017,05,23,05,25,11.70
2017,05,23,05,26,11.70
2017,05,23,05,27,11.70
2017,05,23,05,28,11.70
2017,05,23,05,29,11.70
2017,05,23,05,30,11.70
2017,05,23,05,31,11.70
2017,05,23,05,32,11.70
2017,05,23,05,33,11.70
2017,05,23,05,34,11.70
2017,05,23,05,35,11.70
2017,05,23,05,36,11.70
2017,05,23,05,37,11.70
2017,05,23,05,38,11.70
2017,05,23,05,39,11.70
2017,05,23,05,40,11.70
2017,05,23,05,41,11.70
2017,05,23,05,42,11.70
2017,05,23,05,43,11.70
2017,05,23,05,44,11.70
2017,05,23,05,45,11.70
2017,05,23,05,46,11.60
2017,05,23,05,47,11.60
2017,05,23,05,48,11.60
2017,05,23,05,49,11.60
2017,05,23,05,50,11.60
2017,05,23,05,51,11.60
2017,05,23,05,52,11.60
2017,05,23,05,53,11.70
2017,05,23,05,54,11.70
2017,05,23,05,55,11.70
2017,05,23,05,56,11.70
2017,05,23,05,57,11.70
2017,05,23,05,58,11.70
2017,05,23,05,59,11.70
2017,05,23,06,00,11.70
2017,05,23,06,01,11.70
2017,05,23,06,02,11.80
2017,05,23,06,03,11.80
2017,05,23,06,04,11.80
2017,05,23,06,05,11.80
2017,05,23,06,06,11.80
2017,05,23,06,07,11.80
2017,05,23,06,08,11.80
2017,05,23,06,09,11.90
2017,05,23,06,10,11.90
2017,05,23,06,11,11.90
2017,05,23,06,12,11.90
2017,05,23,06,13,11.90
2017,05,23,06,14,12.00
2017,05,23,06,15,12.00
2017,05,23,06,16,12.00
2017,05,23,06,17,12.10
2017,05,23,06,18,12.20
2017,05,23,06,19,12.20
2017,05,23,06,20,12.30
2017,05,23,06,21,12.40
2017,05,23,06,22,12.40
2017,05,23,06,23,12.50
2017,05,23,06,24,12.60
2017,05,23,06,25,12.60
2017,05,23,06,26,12.60
2017,05,23,06,27,12.60
2017,05,23,06,28,12.60
2017,05,23,06,29,12.60
2017,05,23,06,30,12.60
2017,05,23,06,31,12.60
2017,05,23,06,32,12.60
2017,05,23,06,33,12.70
2017,05,23,06,34,12.80
2017,05,23,06,35,12.80
2017,05,23,06,36,12.90
2017,05,23,06,37,13.00
2017,05,23,06,38,13.10
2017,05,23,06,39,13.10
2017,05,23,06,40,13.20
2017,05,23,06,41,13.30
2017,05,23,06,42,13.30
2017,05,23,06,43,13.40
2017,05,23,06,44,13.50
2017,05,23,06,45,13.60
2017,05,23,06,46,13.70
2017,05,23,06,47,13.80
2017,05,23,06,48,13.90
2017,05,23,06,49,14.00
2017,05,23,06,50,14.10
2017,05,23,06,51,14.20
2017,05,23,06,52,14.30
2017,05,23,06,53,14.30
2017,05,23,06,54,14.40
2017,05,23,06,55,14.40
2017,05,23,06,56,14.50
2017,05,23,06,57,14.60
2017,05,23,06,58,14.60
2017,05,23,06,59,14.70
2017,05,23,07,00,14.80
2017,05,23,07,01,14.80
2017,05,23,07,02,14.90
2017,05,23,07,03,14.90
2017,05,23,07,04,14.90
2017,05,23,07,05,14.90
2017,05,23,07,06,14.90
2017,05,23,07,07,15.00
2017,05,23,07,08,15.00
2017,05,23,07,09,15.00
2017,05,23,07,10,15.00
2017,05,23,07,11,15.00
2017,05,23,07,12,15.00
2017,05,23,07,13,15.00
2017,05,23,07,14,14.90
2017,05,23,07,15,14.90
2017,05,23,07,16,14.80
2017,05,23,07,17,14.80
2017,05,23,07,18,14.80
2017,05,23,07,19,14.80
2017,05,23,07,20,14.70
2017,05,23,07,21,14.70
2017,05,23,07,22,14.70
2017,05,23,07,23,14.70
2017,05,23,07,24,14.70
2017,05,23,07,25,14.70
2017,05,23,07,26,14.70
2017,05,23,07,27,14.70
2017,05,23,07,28,14.70
2017,05,23,07,29,14.80
2017,05,23,07,30,14.80
2017,05,23,07,31,14.80
2017,05,23,07,32,14.90
2017,05,23,07,33,15.00
2017,05,23,07,34,15.10
2017,05,23,07,35,15.10
2017,05,23,07,36,15.20
2017,05,23,07,37,15.30
2017,05,23,07,38,15.40
2017,05,23,07,39,15.50
2017,05,23,07,40,15.60
2017,05,23,07,41,15.70
2017,05,23,07,42,15.80
2017,05,23,07,43,15.80
2017,05,23,07,44,15.90
2017,05,23,07,45,15.90
2017,05,23,07,46,16.00
2017,05,23,07,47,16.00
2017,05,23,07,48,16.10
2017,05,23,07,49,16.10
2017,05,23,07,50,16.10
2017,05,23,07,51,16.00
2017,05,23,07,52,16.00
2017,05,23,07,53,16.00
2017,05,23,07,54,15.90
2017,05,23,07,55,15.90
2017,05,23,07,56,15.90
2017,05,23,07,57,15.90
2017,05,23,07,58,15.90
2017,05,23,07,59,15.90
2017,05,23,08,00,15.90
2017,05,23,08,01,15.90
2017,05,23,08,02,15.90
2017,05,23,08,03,15.90
2017,05,23,08,04,15.90
2017,05,23,08,05,15.90
2017,05,23,08,06,15.90
2017,05,23,08,07,15.80
2017,05,23,08,08,15.80
2017,05,23,08,09,15.80
2017,05,23,08,10,15.80
2017,05,23,08,11,15.80
2017,05,23,08,12,15.80
2017,05,23,08,13,15.80
2017,05,23,08,14,15.80
2017,05,23,08,15,15.80
2017,05,23,08,16,15.80
2017,05,23,08,17,15.80
2017,05,23,08,18,15.80
2017,05,23,08,19,15.90
2017,05,23,08,20,15.90
2017,05,23,08,21,16.00
2017,05,23,08,22,16.00
2017,05,23,08,23,16.10
2017,05,23,08,24,16.10
2017,05,23,08,25,16.20
2017,05,23,08,26,16.30
2017,05,23,08,27,16.30
2017,05,23,08,28,16.40
2017,05,23,08,29,16.40
2017,05,23,08,30,16.40
2017,05,23,08,31,16.40
2017,05,23,08,32,16.50
2017,05,23,08,33,16.50
2017,05,23,08,34,16.50
2017,05,23,08,35,16.60
2017,05,23,08,36,16.60
2017,05,23,08,37,16.60
2017,05,23,08,38,16.70
2017,05,23,08,39,16.70
2017,05,23,08,40,16.70
2017,05,23,08,41,16.70
2017,05,23,08,42,16.70
2017,05,23,08,43,16.70
2017,05,23,08,44,16.70
2017,05,23,08,45,16.70
2017,05,23,08,46,16.70
2017,05,23,08,47,16.70
2017,05,23,08,48,16.70
2017,05,23,08,49,16.70
2017,05,23,08,50,16.70
2017,05,23,08,51,16.70
2017,05,23,08,52,16.70
2017,05,23,08,53,16.70
2017,05,23,08,54,16.70
2017,05,23,08,55,16.70
2017,05,23,08,56,16.70
2017,05,23,08,57,16.80
2017,05,23,08,58,16.80
2017,05,23,08,59,16.90
2017,05,23,09,00,16.90
2017,05,23,09,01,16.90
2017,05,23,09,02,17.00
2017,05,23,09,03,17.00
2017,05,23,09,04,17.10
2017,05,23,09,05,17.10
2017,05,23,09,06,17.10
2017,05,23,09,07,17.20
2017,05,23,09,08,17.10
2017,05,23,09,09,17.00
2017,05,23,09,10,17.00
2017,05,23,09,11,16.90
2017,05,23,09,12,16.90
2017,05,23,09,13,16.80
2017,05,23,09,14,16.80
2017,05,23,09,15,16.70
2017,05,23,09,16,16.70
2017,05,23,09,17,16.70
2017,05,23,09,18,16.80
2017,05,23,09,19,16.80
2017,05,23,09,20,16.80
2017,05,23,09,21,16.70
2017,05,23,09,22,16.60
2017,05,23,09,23,16.50
2017,05,23,09,24,16.50
2017,05,23,09,25,16.40
2017,05,23,09,26,16.40
2017,05,23,09,27,16.40
2017,05,23,09,28,16.50
2017,05,23,09,29,16.50
2017,05,23,09,30,16.50
2017,05,23,09,31,16.60
2017,05,23,09,32,16.60
2017,05,23,09,33,16.70
2017,05,23,09,34,16.80
2017,05,23,09,35,16.90
2017,05,23,09,36,17.00
2017,05,23,09,37,17.10
2017,05,23,09,38,17.20
2017,05,23,09,39,17.30
2017,05,23,09,40,17.40
2017,05,23,09,41,17.50
2017,05,23,09,42,17.60
2017,05,23,09,43,17.60
2017,05,23,09,44,17.60
2017,05,23,09,45,17.60
2017,05,23,09,46,17.60
2017,05,23,09,47,17.50
2017,05,23,09,48,17.40
2017,05,23,09,49,17.40
2017,05,23,09,50,17.40
2017,05,23,09,51,17.40
2017,05,23,09,52,17.40
2017,05,23,09,53,17.40
2017,05,23,09,54,17.40
2017,05,23,09,55,17.30
2017,05,23,09,56,17.30
2017,05,23,09,57,17.30
2017,05,23,09,58,17.30
2017,05,23,09,59,17.30
2017,05,23,10,00,17.30
2017,05,23,10,01,17.40
2017,05,23,10,02,17.40
2017,05,23,10,03,17.40
2017,05,23,10,04,17.40
2017,05,23,10,05,17.40
2017,05,23,10,06,17.40
2017,05,23,10,07,17.40
2017,05,23,10,08,17.40
2017,05,23,10,09,17.40
2017,05,23,10,10,17.30
2017,05,23,10,11,17.30
2017,05,23,10,12,17.20
2017,05,23,10,13,17.20
2017,05,23,10,14,17.10
2017,05,23,10,15,17.10
2017,05,23,10,16,17.10
2017,05,23,10,17,17.10
2017,05,23,10,18,17.10
2017,05,23,10,19,17.10
2017,05,23,10,20,17.10
2017,05,23,10,21,17.10
2017,05,23,10,22,17.20
2017,05,23,10,23,17.20
2017,05,23,10,24,17.20
2017,05,23,10,25,17.20
2017,05,23,10,26,17.20
2017,05,23,10,27,17.20
2017,05,23,10,28,17.10
2017,05,23,10,29,17.10
2017,05,23,10,30,17.10
2017,05,23,10,31,17.10
2017,05,23,10,32,17.10
2017,05,23,10,33,17.00
2017,05,23,10,34,16.90
2017,05,23,10,35,17.00
2017,05,23,10,36,17.00
2017,05,23,10,37,17.00
2017,05,23,10,38,17.00
2017,05,23,10,39,17.10
2017,05,23,10,40,17.20
2017,05,23,10,41,17.20
2017,05,23,10,42,17.20
2017,05,23,10,43,17.30
2017,05,23,10,44,17.30
2017,05,23,10,45,17.20
2017,05,23,10,46,17.20
2017,05,23,10,47,17.20
2017,05,23,10,48,17.20
2017,05,23,10,49,17.20
2017,05,23,10,50,17.20
2017,05,23,10,51,17.10
2017,05,23,10,52,17.20
2017,05,23,10,53,17.20
2017,05,23,10,54,17.20
2017,05,23,10,55,17.20
2017,05,23,10,56,17.20
2017,05,23,10,57,17.20
2017,05,23,10,58,17.10
2017,05,23,10,59,17.10
2017,05,23,11,00,17.10
2017,05,23,11,01,17.10
2017,05,23,11,02,17.10
2017,05,23,11,03,17.10
2017,05,23,11,04,17.10
2017,05,23,11,05,17.10
2017,05,23,11,06,17.10
2017,05,23,11,07,17.20
2017,05,23,11,08,17.30
2017,05,23,11,09,17.30
2017,05,23,11,10,17.30
2017,05,23,11,11,17.30
2017,05,23,11,12,17.30
2017,05,23,11,13,17.40
2017,05,23,11,14,17.40
2017,05,23,11,15,17.50
2017,05,23,11,16,17.60
2017,05,23,11,17,17.60
2017,05,23,11,18,17.60
2017,05,23,11,19,17.50
2017,05,23,11,20,17.60
2017,05,23,11,21,17.60
2017,05,23,11,22,17.70
2017,05,23,11,23,17.70
2017,05,23,11,24,17.80
2017,05,23,11,25,17.80
2017,05,23,11,26,17.90
2017,05,23,11,27,17.90
2017,05,23,11,28,17.90
2017,05,23,11,29,18.00
2017,05,23,11,30,18.00
2017,05,23,11,31,18.10
2017,05,23,11,32,18.10
2017,05,23,11,33,18.20
2017,05,23,11,34,18.20
2017,05,23,11,35,18.20
2017,05,23,11,36,18.20
2017,05,23,11,37,18.30
2017,05,23,11,38,18.40
2017,05,23,11,39,18.50
2017,05,23,11,40,18.60
2017,05,23,11,41,18.60
2017,05,23,11,42,18.70
2017,05,23,11,43,18.70
2017,05,23,11,44,18.70
2017,05,23,11,45,18.60
2017,05,23,11,46,18.50
2017,05,23,11,47,18.40
2017,05,23,11,48,18.40
2017,05,23,11,49,18.50
2017,05,23,11,50,18.60
2017,05,23,11,51,18.60
2017,05,23,11,52,18.70
2017,05,23,11,53,18.80
2017,05,23,11,54,18.80
2017,05,23,11,55,18.90
2017,05,23,11,56,18.80
2017,05,23,11,57,18.80
2017,05,23,11,58,18.80
2017,05,23,11,59,18.80
2017,05,23,12,00,18.80
2017,05,23,12,01,18.80
2017,05,23,12,02,18.80
2017,05,23,12,03,18.90
2017,05,23,12,04,18.90
2017,05,23,12,05,18.90
2017,05,23,12,06,18.80
2017,05,23,12,07,18.80
2017,05,23,12,08,18.70
2017,05,23,12,09,18.60
2017,05,23,12,10,18.60
2017,05,23,12,11,18.60
2017,05,23,12,12,18.60
2017,05,23,12,13,18.50
2017,05,23,12,14,18.60
2017,05,23,12,15,18.50
2017,05,23,12,16,18.50
2017,05,23,12,17,18.60
2017,05,23,12,18,18.60
2017,05,23,12,19,18.60
2017,05,23,12,20,18.60
2017,05,23,12,21,18.60
2017,05,23,12,22,18.50
2017,05,23,12,23,18.40
2017,05,23,12,24,18.40
2017,05,23,12,25,18.30
2017,05,23,12,26,18.30
2017,05,23,12,27,18.30
2017,05,23,12,28,18.40
2017,05,23,12,29,18.40
2017,05,23,12,30,18.50
2017,05,23,12,31,18.60
2017,05,23,12,32,18.70
2017,05,23,12,33,18.70
2017,05,23,12,34,18.80
2017,05,23,12,35,18.80
2017,05,23,12,36,18.80
2017,05,23,12,37,18.80
2017,05,23,12,38,18.70
2017,05,23,12,39,18.80
2017,05,23,12,40,18.80
2017,05,23,12,41,18.90
2017,05,23,12,42,18.90
2017,05,23,12,43,18.90
2017,05,23,12,44,19.00
2017,05,23,12,45,19.10
2017,05,23,12,46,19.20
2017,05,23,12,47,19.30
2017,05,23,12,48,19.30
2017,05,23,12,49,19.30
2017,05,23,12,50,19.30
2017,05,23,12,51,19.30
2017,05,23,12,52,19.30
2017,05,23,12,53,19.20
2017,05,23,12,54,19.20
2017,05,23,12,55,19.20
2017,05,23,12,56,19.20
2017,05,23,12,57,19.20
2017,05,23,12,58,19.30
2017,05,23,12,59,19.30
2017,05,23,13,00,19.40
2017,05,23,13,01,19.50
2017,05,23,13,02,19.50
2017,05,23,13,03,19.60
2017,05,23,13,04,19.60
2017,05,23,13,05,19.60
2017,05,23,13,06,19.70
2017,05,23,13,07,19.60
2017,05,23,13,08,19.60
2017,05,23,13,09,19.60
2017,05,23,13,10,19.50
2017,05,23,13,11,19.40
2017,05,23,13,12,19.50
2017,05,23,13,13,19.60
2017,05,23,13,14,19.70
2017,05,23,13,15,19.70
2017,05,23,13,16,19.80
2017,05,23,13,17,19.80
2017,05,23,13,18,19.70
2017,05,23,13,19,19.60
2017,05,23,13,20,19.50
2017,05,23,13,21,19.40
2017,05,23,13,22,19.30
2017,05,23,13,23,19.10
2017,05,23,13,24,19.00
2017,05,23,13,25,19.00
2017,05,23,13,26,18.90
2017,05,23,13,27,18.90
2017,05,23,13,28,18.90
2017,05,23,13,29,18.90
2017,05,23,13,30,18.80
2017,05,23,13,31,18.90
2017,05,23,13,32,18.90
2017,05,23,13,33,19.00
2017,05,23,13,34,19.10
2017,05,23,13,35,19.10
2017,05,23,13,36,19.10
2017,05,23,13,37,19.10
2017,05,23,13,38,19.10
2017,05,23,13,39,19.10
2017,05,23,13,40,19.10
2017,05,23,13,41,19.20
2017,05,23,13,42,19.10
2017,05,23,13,43,19.10
2017,05,23,13,44,19.10
2017,05,23,13,45,19.20
2017,05,23,13,46,19.10
2017,05,23,13,47,19.00
2017,05,23,13,48,18.90
2017,05,23,13,49,18.80
2017,05,23,13,50,18.80
2017,05,23,13,51,18.80
2017,05,23,13,52,18.90
2017,05,23,13,53,18.90
2017,05,23,13,54,18.90
2017,05,23,13,55,18.90
2017,05,23,13,56,18.90
2017,05,23,13,57,18.90
2017,05,23,13,58,18.90
2017,05,23,13,59,18.90
2017,05,23,14,00,18.90
2017,05,23,14,01,19.00
2017,05,23,14,02,19.00
2017,05,23,14,03,19.10
2017,05,23,14,04,19.10
2017,05,23,14,05,19.10
2017,05,23,14,06,19.10
2017,05,23,14,07,19.10
2017,05,23,14,08,19.20
2017,05,23,14,09,19.20
2017,05,23,14,10,19.20
2017,05,23,14,11,19.10
2017,05,23,14,12,19.10
2017,05,23,14,13,19.10
2017,05,23,14,14,19.10
2017,05,23,14,15,19.10
2017,05,23,14,16,19.10
2017,05,23,14,17,19.10
2017,05,23,14,18,19.10
2017,05,23,14,19,19.00
2017,05,23,14,20,18.90
2017,05,23,14,21,18.80
2017,05,23,14,22,18.80
2017,05,23,14,23,18.90
2017,05,23,14,24,18.90
2017,05,23,14,25,18.90
2017,05,23,14,26,18.90
2017,05,23,14,27,18.90
2017,05,23,14,28,18.90
2017,05,23,14,29,18.80
2017,05,23,14,30,18.70
2017,05,23,14,31,18.70
2017,05,23,14,32,18.60
2017,05,23,14,33,18.70
2017,05,23,14,34,18.70
2017,05,23,14,35,18.70
2017,05,23,14,36,18.70
2017,05,23,14,37,18.70
2017,05,23,14,38,18.70
2017,05,23,14,39,18.70
2017,05,23,14,40,18.70
2017,05,23,14,41,18.60
2017,05,23,14,42,18.50
2017,05,23,14,43,18.40
2017,05,23,14,44,18.40
2017,05,23,14,45,18.40
2017,05,23,14,46,18.30
2017,05,23,14,47,18.30
2017,05,23,14,48,18.20
2017,05,23,14,49,18.20
2017,05,23,14,50,18.10
2017,05,23,14,51,18.00
2017,05,23,14,52,17.90
2017,05,23,14,53,17.80
2017,05,23,14,54,17.60
2017,05,23,14,55,17.50
2017,05,23,14,56,17.40
2017,05,23,14,57,17.30
2017,05,23,14,58,17.30
2017,05,23,14,59,17.20
2017,05,23,15,00,17.10
2017,05,23,15,01,17.10
2017,05,23,15,02,17.00
2017,05,23,15,03,16.90
2017,05,23,15,04,17.00
2017,05,23,15,05,16.90
2017,05,23,15,06,16.90
2017,05,23,15,07,16.90
2017,05,23,15,08,16.90
2017,05,23,15,09,16.80
2017,05,23,15,10,16.90
2017,05,23,15,11,16.90
2017,05,23,15,12,16.80
2017,05,23,15,13,16.80
2017,05,23,15,14,16.80
2017,05,23,15,15,16.90
2017,05,23,15,16,16.90
2017,05,23,15,17,17.00
2017,05,23,15,18,17.00
2017,05,23,15,19,17.00
2017,05,23,15,20,16.90
2017,05,23,15,21,17.00
2017,05,23,15,22,17.00
2017,05,23,15,23,16.90
2017,05,23,15,24,17.00
2017,05,23,15,25,17.00
2017,05,23,15,26,17.10
2017,05,23,15,27,17.10
2017,05,23,15,28,17.10
2017,05,23,15,29,17.20
2017,05,23,15,30,17.10
2017,05,23,15,31,17.20
2017,05,23,15,32,17.20
2017,05,23,15,33,17.10
2017,05,23,15,34,17.00
2017,05,23,15,35,17.00
2017,05,23,15,36,17.00
2017,05,23,15,37,17.10
2017,05,23,15,38,17.10
2017,05,23,15,39,17.10
2017,05,23,15,40,17.20
2017,05,23,15,41,17.20
2017,05,23,15,42,17.10
2017,05,23,15,43,17.10
2017,05,23,15,44,17.10
2017,05,23,15,45,17.10
2017,05,23,15,46,17.10
2017,05,23,15,47,17.10
2017,05,23,15,48,17.00
2017,05,23,15,49,17.00
2017,05,23,15,50,17.00
2017,05,23,15,51,17.00
2017,05,23,15,52,16.90
2017,05,23,15,53,16.90
2017,05,23,15,54,16.80
2017,05,23,15,55,16.80
2017,05,23,15,56,16.70
2017,05,23,15,57,16.70
2017,05,23,15,58,16.60
2017,05,23,15,59,16.60
2017,05,23,16,00,16.70
2017,05,23,16,01,16.70
2017,05,23,16,02,16.60
2017,05,23,16,03,16.60
2017,05,23,16,04,16.50
2017,05,23,16,05,16.50
2017,05,23,16,06,16.40
2017,05,23,16,07,16.30
2017,05,23,16,08,16.30
2017,05,23,16,09,16.40
2017,05,23,16,10,16.40
2017,05,23,16,11,16.30
2017,05,23,16,12,16.20
2017,05,23,16,13,16.20
2017,05,23,16,14,16.20
2017,05,23,16,15,16.10
2017,05,23,16,16,16.10
2017,05,23,16,17,16.00
2017,05,23,16,18,16.00
2017,05,23,16,19,15.90
2017,05,23,16,20,15.80
2017,05,23,16,21,15.80
2017,05,23,16,22,15.70
2017,05,23,16,23,15.70
2017,05,23,16,24,15.70
2017,05,23,16,25,15.60
2017,05,23,16,26,15.60
2017,05,23,16,27,15.60
2017,05,23,16,28,15.60
2017,05,23,16,29,15.50
2017,05,23,16,30,15.40
2017,05,23,16,31,15.50
2017,05,23,16,32,15.40
2017,05,23,16,33,15.40
2017,05,23,16,34,15.40
2017,05,23,16,35,15.40
2017,05,23,16,36,15.30
2017,05,23,16,37,15.30
2017,05,23,16,38,15.30
2017,05,23,16,39,15.20
2017,05,23,16,40,15.20
2017,05,23,16,41,15.20
2017,05,23,16,42,15.20
2017,05,23,16,43,15.20
2017,05,23,16,44,15.20
2017,05,23,16,45,15.20
2017,05,23,16,46,15.20
2017,05,23,16,47,15.20
2017,05,23,16,48,15.10
2017,05,23,16,49,15.00
2017,05,23,16,50,14.90
2017,05,23,16,51,14.90
2017,05,23,16,52,14.90
2017,05,23,16,53,14.90
2017,05,23,16,54,15.00
2017,05,23,16,55,15.00
2017,05,23,16,56,15.00
2017,05,23,16,57,15.00
2017,05,23,16,58,15.00
2017,05,23,16,59,15.10
2017,05,23,17,00,15.10
2017,05,23,17,01,15.10
2017,05,23,17,02,15.10
2017,05,23,17,03,15.10
2017,05,23,17,04,15.20
2017,05,23,17,05,15.20
2017,05,23,17,06,15.20
2017,05,23,17,07,15.20
2017,05,23,17,08,15.20
2017,05,23,17,09,15.10
2017,05,23,17,10,15.10
2017,05,23,17,11,15.10
2017,05,23,17,12,15.00
2017,05,23,17,13,15.00
2017,05,23,17,14,15.00
2017,05,23,17,15,14.90
2017,05,23,17,16,14.80
2017,05,23,17,17,14.70
2017,05,23,17,18,14.60
2017,05,23,17,19,14.50